Find Starlink 4264

NORAD ID: 52993 Int'l Des: 2022-076 Owner: SPXS Country: US Constellation: starlink decayed
LEOCIRCULAR
Vis

Historical Track — Jan 31, 2026

正在加载3D地球...

关于 Starlink 4264

正在加载描述...

高度历史

Loading altitude history...

两行轨道根数

1 52993U 22076H 26031.36583726 .00123510 17937-4 20624-3 0 9997
2 52993 53.2162 247.6859 0002873 158.2213 201.8942 16.02700141197401
Epoch: Jan 31, 2026 • Age: 2174 hours

当前状态

高度 79.4 km
速度 7.86 km/s
星下点 -38.29°S, 151.83°E
发射日期 Jul 7, 2022
运行时间 3.8 years
衰减日期 Jan 31, 2026
类型 internet

技术详情

分类 Payload
质量 297.00 kg
干质量 275.00 kg
总质量 297.00 kg
长度 0.20 m
直径 2.80 m
跨度 9.00 m
形状 Box + pan
制造商 SPXS
平台类型 Starlink
阶段状态 Reentered
所有者/国家 SPXS/US

Most Searched